Погода в Трилесах

Украина / Киевская область     49°58′57″N   29°50′33″E
темп.,
°C
ветер,
м/с
пор.,
м/с
влажн.,
%
обл.,
%
осадки,
мм/ч
давл.,
гПа
погр.,
м
6 мая, чт
чт600:00+11ю8167496 0.1 1006600
03:00+9ю8157862 0.1 1006545
06:00+8ююз6138434 0.1 1005470
09:00+9з61092100 1.0 1007796
12:00+10зсз5874100 0.3 10101159
15:00+14зсз6944100 0.3 10112342
18:00+13зсз575226 0.0 10122015
21:00+9з2258100 0.0 101414
7 мая, пт
пт700:00+8ююз3464100 0.0 101460
03:00+6ююз3661100 0.0 1014108
06:00+5ююз486720 0.0 1014142
09:00+11ю61265100 0.0 1013624
12:00+13ю7126495 0.0 10111163
15:00+13ю91469100 0.1 10091321
18:00+11ю51094100 3.5 1007460
21:00+11ю3698100 3.9 1006188
8 мая, сб
сб800:00+11зюз3897100 2.2 1006312
03:00+10з4992100 2.6 1007383
06:00+8зсз71387100 0.0 1009605
09:00+7зсз9127996 0.0 1012997
12:00+6зсз8117487 0.1 10151113
15:00+11зсз10124939 0.1 10152224
18:00+10зсз611585 0.0 10161922
21:00+6з46747 0.1 1019120
9 мая, вс
вс900:00+4зсз410841 0.0 1021241
03:00+3з49860 0.0 1022190
06:00+2з410870 0.0 1024208
09:00+8сз58705 0.0 1025641
12:00+12сз465323 0.0 10251818
15:00+14сз344490 0.0 10252335
18:00+14сз234764 0.0 10251280
21:00+9св00625 0.0 102710
10 мая, пн
пн1000:00+7ююв22671 0.0 102814
03:00+6ююв33745 0.0 102833
06:00+5ююв33785 0.0 102935
09:00+11юв45635 0.0 1029412
12:00+15юв45515 0.0 10291470
15:00+16юв34480 0.0 10281577
18:00+16вюв44550 0.0 10271392
21:00+9вюв46735 0.0 102786